星链-33769 (STARLINK-33769)

导读

STARLINK-33769是美国SpaceX星链(Starlink)项目的低轨通信卫星,于2025年4月29日由美国发射入轨,目前处于在轨运行状态。它运行在近500公里的近地轨道,属于星链星座组网的组成部分,旨在为全球提供高速低延迟宽带互联网服务,助力缩小数字鸿沟,同时可为商业、偏远区域接入及行业通信提供支持,是SpaceX构建全球卫星互联网基础设施的一环。

Basic Information
目录编号:
63773
目录名称:
STARLINK-33769
国际标识:
2025-089X
轨道中心:
EARTH
卫星名称:
星链-33769
卫星全名:
星链-33769 (STARLINK-33769)
卫星状态:
在轨 (已飞行494 天)
发射日期:
2025-04-29 UTC
国别 :
美国 (US)
星等 :
--
Orbit Information
数据来源 国际轨道数据
星历时间: 2026-09-05T07:58:04+0800
12小时前
查看轨道信息
半长轴: 6861.229km
偏心率: 0.0003359
轨道倾角: 43.001°
近地点辐角 247.966°
升交点赤经 112.322°
平近点角 112.084°
近地点: 480.787km
远地点: 485.397km
周期: 94.268分钟
每日圈数: 15.275658
Detailed Information
固有亮度:
5
最大亮度:
2.5
卫星平台:
Starlink V1.0
覆盖范围:
全球
运营商:
太空探索技术公司
运营商所在国:
美国
制造商(研发单位):
太空探索技术公司
制造商所在国:
美国
使用方式:
暂无
Satellite Introduction
Starlink 计划是 SpaceX 推出的全球卫星互联网项目,通过发射低轨道卫星,为全球尤其是偏远地区提供高速、低延迟的互联网服务。自 2019 年起,Starlink 已部署数千颗卫星,旨在缩小全球数字鸿沟,推动互联网普及。该项目还为军事、航空等行业提供通信支持,带来广泛经济效益。
2D Orbit Map
3D Orbit Map
Orbit Altitude Analysis Chart
Orbit Inclination Analysis Chart
Orbit Comprehensive Analysis Chart
View Comprehensive Chart
Conjunction Data List
Event ID Objects TCA Miss Dist (km) Collision Risk Probability Collision Risk Index (CRI) Action
CDM_260907-141205-546406-377321
2026-09-07T
14:12:46+0000
0.361 km
远距离
2.547617E-4 高风险 0.83
CDM_260907-072705-963906-377321
2026-09-07T
07:27:01+0000
1.109 km
极远距离
1.192182E-5 中风险 0.57
CDM_260907-154605-546406-377321
2026-09-07T
15:46:56+0000
1.830 km
极远距离
2.133388E-6 低风险 0.42
CDM_260907-055205-963906-377321
2026-09-07T
05:52:51+0000
2.481 km
极远距离
1.209945E-6 低风险 0.37
CDM_260907-123805-546406-377321
2026-09-07T
12:38:37+0000
2.434 km
极远距离
1.128296E-6 低风险 0.36